Regional Weather Roundup
Issued by NWS Upton, NY

Current Version | Previous Version | Graphics & Text | Print | Product List | Glossary Off
Versions: 1 2 3 4 5 6 7 8 9 10 11 12 13 14 15 16 17 18 19 20 21 22 23 24 25 26 27 28 29 30 31 32 33 34 35 36 37 38 39 40 41 42 43 44 45 46 47 48 49 50

000
ASUS41 KOKX 241305
RWROKX

REGIONAL WEATHER ROUNDUP
NATIONAL WEATHER SERVICE NEW YORK NY
900 AM EDT THU JUL 24 2014

NOTE: "FAIR" INDICATES FEW OR NO CLOUDS BELOW 12,000 FEET WITH NO
SIGNIFICANT WEATHER AND/OR OBSTRUCTIONS TO VISIBILITY.

NYZ071-072-176-178-NJZ106-104-241400-
NEW YORK CITY METRO AREA


CITY           SKY/WX    TMP DP  RH WIND       PRES   REMARKS
CENTRAL PARK   PTSUNNY   74  64  71 VRB3      29.88R
LAGUARDIA APRT CLOUDY    74  64  71 N10       29.85R
KENNEDY INTL   CLOUDY    75  64  68 N9        29.86R
NEWARK/LIBERTY PTSUNNY   75  63  66 N12       29.86R
BRNX BOT. GARD   N/A     73  63  68 N7        29.86F
TETERBORO      CLOUDY    76  63  64 NW9       29.85R
$$

NYZ177-179-078>081-241400-
LONG ISLAND NEW YORK

CITY           SKY/WX    TMP DP  RH WIND       PRES   REMARKS
FARMINGDALE    CLOUDY    73  64  73 N8        29.85R
ISLIP          PTSUNNY   76  63  64 N14       29.82R
SHIRLEY        PTSUNNY   75  64  68 N12       29.83R
WESTHAMPTON    MOSUNNY   76  65  68 N12       29.83R
MONTAUK POINT    N/A     73  67  81 NW6       29.82R
$$

NYZ052-065-067-241400-
HUDSON VALLEY

CITY           SKY/WX    TMP DP  RH WIND       PRES   REMARKS
WHITE PLAINS   CLOUDY    71  62  73 N15       29.86R
NEWBURGH       PTSUNNY   70  64  83 N12       29.89S
MONTGOMERY     CLOUDY    70  63  78 VRB3      29.88S
POUGHKEEPSIE   MOSUNNY   72  61  68 N13       29.87S
ALBANY         PTSUNNY   68  58  70 N10       29.92R
$$

NJZ001-105-106-008-010-013-015-019>022-104-241400-
NEW JERSEY

CITY           SKY/WX    TMP DP  RH WIND       PRES   REMARKS
NEWARK/LIBERTY PTSUNNY   75  63  66 N12       29.86R
TETERBORO      CLOUDY    76  63  64 NW9       29.85R
CALDWELL       CLOUDY    71  60  68 NW5       29.87R
MORRISTOWN     PTSUNNY   72  63  73 N9        29.87S
SOMERVILLE     MOSUNNY   73  60  63 N7        29.86R
LINDEN         FAIR      74  64  69 N7        29.88S
SUSSEX         MOSUNNY   73  60  63 NW6       29.90R
ANDOVER          N/A     70  59  68 VRB6      29.90S
TRENTON        PTSUNNY   72  62  71 N9G18     29.86F
MILLVILLE      CLOUDY    72  67  84 N8        29.87S
ATLANTIC CITY  PTSUNNY   72  66  81 NW9       29.86R
WRIGHTSTOWN    PTSUNNY   74  64  72 N10       29.85S
TOMS RIVER     MOSUNNY   73  64  73 N12       29.85S
BELMAR         PTSUNNY   73  63  68 N12       29.85F
$$

PAZ047>061-062-071-241400-
EASTERN PENNSYLVANIA

CITY           SKY/WX    TMP DP  RH WIND       PRES   REMARKS
PHILADELPHIA   CLOUDY    73  59  61 N13       29.88R
ALLENTOWN      PTSUNNY   71  59  65 N9        29.90S
SCRANTON       PTSUNNY   68  56  65 N8        29.94F
$$

CTZ002-004>006-009-010-012-RIZ004-006-007-MAZ004-011-015-241400-
SOUTHERN NEW ENGLAND
 IN CT

CITY           SKY/WX    TMP DP  RH WIND       PRES   REMARKS
BRADLEY INTL   PTSUNNY   73  63  70 N9        29.84R
HARTFORD       PTSUNNY   72  61  68 N10       29.84R
DANBURY        PTSUNNY   69  61  75 N7        29.88R
WTRBRY/OXFORD  PTSUNNY   70  61  73 N14       29.88R
BRIDGEPORT     CLOUDY    73  63  70 N8G18     29.84R
MERIDEN        MOSUNNY   73  63  70 N6        29.84R
NEW HAVEN      PTSUNNY   76  63  64 N12G21    29.83R
CHESTER        FAIR      72  64  78 N12G21    29.84R
GROTON         SUNNY     74  67  78 N13       29.79S
WILLIMANTIC    CLOUDY    73  64  73 N12       29.84R

 IN RI

CITY           SKY/WX    TMP DP  RH WIND       PRES   REMARKS
PROVIDENCE     PTSUNNY   77  67  71 N9        29.80R
BLOCK ISLAND   SUNNY     73  66  78 NW6       29.81R
WESTERLY       SUNNY     76  66  71 N12       29.80R

 IN MA

CITY           SKY/WX    TMP DP  RH WIND       PRES   REMARKS
BOSTON         CLOUDY    73  66  78 N9        29.80R
WORCESTER      PTSUNNY   70  62  76 NW6       29.85R
WESTFIELD      MOSUNNY   72  61  68 N12       29.85R
PROVINCETOWN   CLOUDY    70  68  94 CALM      29.79R
NANTUCKET      MOSUNNY   72  68  87 SW6       29.78R
$$

ANZ330-335-338-340-345-350-353-355-241400-
COASTAL MARINE OBSERVATIONS


STATION/POSITION TIME  SKY/WX   TEMP    WIND        PRES    VSBY  WAVE
                                AIR SEA DIR/SP/G                  HT/PER
                 (UTC)          (F)     (DEG/KT/KT) (MB)    (MI)  (FT/S)
NY HARB ENTRANCE NOT AVBL
4S FIRE IS       NOT AVBL
23SW MTP         1300            72 70              1008.9          2/ 5
HUDSON CANYON    1300            73 74  350/ 14/ 16 1009.6          3/ 5
EXECUTION ROCKS  1300            72 71  350/  8/ 12   N/A
WESTERN LI SOUND 1300            72      10/  8/ 10   N/A           0
CENTRAL LI SOUND 1200            72 72  350/ 10/ 12   N/A           1
EASTERN LI SOUND 1200            73 67  350/ 10/ 14   N/A
ROBBINS REEF     1300            72     340/  9/ 11   N/A
$$


>>>>>>>>>>>>>>>>>>>>>>>>>>>> KEY <<<<<<<<<<<<<<<<<<<<<<<<<<<
>                                                          <
>     SKY/WX - SKY CONDITION/PRESENT WEATHER               <
>     TMP    - TEMPERATURE IN FAHRENHEIT                   <
>     DP     - DEWPOINT IN FAHRENHEIT                      <
>     RH     - RELATIVE HUMIDITY IN PERCENT                <
>     WIND   - DIRECTION AND SPEED IN MPH                  <
>     PRES   - MEAN SEA LEVEL PRESSURE IN INCHES OF HG     <
>     WCI    - WIND CHILL INDEX                            <
>     VSB    - VISIBILITY IN MILES                         <
>     HX     - HEAT INDEX                                  <
>     TC     - TEMPERATURE IN CELSIUS                      <
>     VRB    - VARIABLE WIND DIRECTION                     <
>                                                          <
>>>>>>>>>>>>>>>>>>>>>>>>>>>> KEY <<<<<<<<<<<<<<<<<<<<<<<<<<<





USA.gov is the U.S. government's official web portal to all federal, state and local government web resources and services.